"Pseudo-MPEC" for ZTF0380

Created 2019 May 24 15:07:31 UT using Find_Orb

Click here for an explanation of pseudo-MPECs

 
 Astrometry: 
     ZTF0380  C2019 05 13.33794317 10 19.77 +21 25 37.8    ~5DKq       UNEOCPI41
     ZTF0380  C2019 05 13.33828917 10 21.24 +21 26 17.1    ~5DKq       UNEOCPI41
     ZTF0380  C2019 05 13.37711717 12 54.96 +22 34 18.7    ~5DK7 18.51RUNEOCPI41
     ZTF0380  C2019 05 13.37746417 12 56.23 +22 34 53.6    ~5DK7 18.51RUNEOCPI41
     ZTF0380  C2019 05 13.39663617 14 12.96 +23 08 22.5    ~5DK7 18.31RUNEOCPI41
     ZTF0380  C2019 05 13.39698317 14 14.35 +23 08 58.3    ~5DK7 18.31RUNEOCPI41
     ZTF0380  C2019 05 13.45567017 18 13.46 +24 51 04.8    ~5DKq 19.14gUNEOCPI41
     ZTF0380  C2019 05 13.45601617 18 14.67 +24 51 38.4    ~5DKq 19.14gUNEOCPI41
     ZTF0380  C2019 05 13.48394617 20 11.31 +25 39 56.2    ~5DKq 18.91gUNEOCPI41
     ZTF0380  C2019 05 13.48429317 20 12.84 +25 40 32.1    ~5DKq 18.91gUNEOCPI41
     ZTF0380 HC2019 05 13@V(igAstrometry$A=^#]nZ$iM%q*YjY$aredacted;)DI!click204
     ZTF0380 HC2019 05 139v0veQT`n8+ax/Ph!0H\[`;e*df^Xbn.'Ebhm,y;^.kdQGNS))4C204
     ZTF0380 KC2019 05 13.94826217 57 57.58 +38 19 01.2    ~5DNb 19.2 GVNEOCPJ95
     ZTF0380 KC2019 05 13.95335317 58 24.19 +38 26 46.1    ~5DNb 19.2 GVNEOCPJ95
     ZTF0380 KC2019 05 13.95780517 58 47.46 +38 33 31.1    ~5DNb 19.1 GVNEOCPJ95
     ZTF0380 KC2019 05 13.96277317 59 13.38 +38 41 01.9    ~5DNb 18.4 GVNEOCPJ95
     ZTF0380 KC2019 05 14.00034 18 02 32.67 +39 38 01.2    ~5E1b 19.3 VqNEOCPI93
     ZTF0380 KC2019 05 14.00557 18 03 00.32 +39 45 46.2    ~5E1b 19.1 VqNEOCPI93
     ZTF0380 KC2019 05 14.01088 18 03 28.23 +39 53 35.7    ~5E1b 19.4 VqNEOCPI93
     ZTF0380 KC2019 05 14.01516218 03 49.07 +39 59 07.3    ~5E37 19.6 GVNEOCPZ80
     ZTF0380 KC2019 05 14.02334618 04 32.55 +40 11 06.5    ~5E37 19.9 GVNEOCPZ80
     ZTF0380 KC2019 05 14.03136618 05 15.27 +40 22 48.8    ~5E37 19.7 GVNEOCPZ80
     ZTF0380 KC2019 05 14DyMc@1A\YOheredX7,Kkl$a*g,ISwq6_Y%_`hYKc;^8Y)eBN1F5pH21
     ZTF0380 KC2019 05 14gB?+upVfQyVUfor`x4ea)Jyc@\(0n=d*B)6qSF]*]:qwl_Si@,R;H21
     ZTF0380 KC2019 05 14B4WS(explanationtSlYOOIF)o^gfu\]LNwh\fchr$e,5idK[CelH21
     ZTF0380 KC2019 05 15.36664220 24 43.47 +60 10 15.7    ~5F9b 21.7 GVNEOCPH01
     ZTF0380 KC2019 05 15.37324420 25 24.50 +60 12 59.2    ~5F9b 20.6 GVNEOCPH01
     ZTF0380 KC2019 05 15.38303820 26 25.22 +60 16 58.7    ~5F9b 20.8 GVNEOCPH01
     ZTF0380 KC2019 05 15.38740520 26 52.25 +60 18 44.4    ~5F9b 21.3 GVNEOCPH01

Station data:
(204) Schiaparelli Observatory  (N45.867933 E8.770800)  Italy.  Observer L.
   Buzzi. 0.60-m f/4.64 Newtonian + CCD.
(H01) Magdalena Ridge Observatory, Socorro  (N33.984833 W107.189333)  US/New
   Mexico.  Observers W. H. Ryan, E. V. Ryan. Measurer W. H. Ryan. 2.4-m
   f/8.9 reflector + CCD.
(H21) Astronomical Research Observatory, Westfield  (N39.483057 W87.968270)
   US/Illinois. 0.76-m f/3.0 astrograph + CCD.
(I41) Palomar Mountain--ZTF  (N33.357340 W116.859780)  US/California. 1.2-m
   f/2.44 Oschin Schmidt + CCD.
(I93) St Pardon de Conques  (N44.558710 W0.203000)  France.  Observer F.
   Losse. 0.40-m f/3.7 reflector + CCD.
(J95) Great Shefford  (N51.474969 W1.447003)  UK.  Observer P. Birtwhistle.
   0.40-m f/6.0 Schmidt-Cassegrain + CCD.
(Z80) Northolt Branch Observatory  (N51.554661 W0.371920)  UK.  Observer G.
   Wells. Measurer D. Bamberger. 0.25-m f/8 Ritchey-Chrétien + CCD.

Orbital elements:  ZTF0380
   Perihelion 2019 Jun 23.942512 +/- 0.0189 TT = 22:37:13 (JD 2458658.442512)
Epoch 2019 May 15.0 TT = JDT 2458618.5   Earth MOID: 0.0192   AutoNEOCP
M 349.20980491 +/- 0.039            (J2000 ecliptic)
n   0.27014312 +/- 0.000857         Peri.   63.25176 +/- 0.009
a   2.36995498 +/- 0.00505          Node   230.40954 +/- 0.00021
e   0.6567022 +/- 0.000759          Incl.   22.09590 +/- 0.016
P   3.65                   H 25.5   G  0.15   U  8.0  
q 0.81360027 +/- 7.74e-5    Q 3.92630969 +/- 0.0102
From 29 observations 2019 May 13-15; mean residual 1".39
Residuals in arcseconds: 
190513 I41  3.3-  6.6-    190513 204  .09-  .80+    190514 Z80  .35-  .78-    
190513 I41  1.7-  3.7-    190513 204  .55+  .09-    190514 Z80  .06-  .09-    
190513 I41  2.1+  2.3+    190513 J95  .25-  .06-    190514 H21  .83-  .07-    
190513 I41  .54+  .81+    190513 J95  .27+  .35+    190514 H21  .53-  .60-    
190513 I41  1.0+  1.0+    190513 J95  .40+  .14+    190514 H21  .18-  .40-    
190513 I41  .97+  .49+    190513 J95  .37-  .15-    190515 H01  .14+  .05-    
190513 I41  .58+  2.9+    190514 I93  .23-  .65-    190515 H01  .10+  .06-    
190513 I41  2.4-  .49+    190514 I93  .63+  .09-    190515 H01  .07+  .08-    
190513 I41  .88+  .93+    190514 I93  .80-  .71-    190515 H01  .16+  .01-    
190513 I41  1.9+  .91+    190514 Z80  .50-  .62-    

Ephemerides (geocentric):
Date (UTC) HH   RA              Dec         delta   r     elong  mag " sig PA
---- -- -- --  -------------   -----------  ------ ------ -----  --- ---- ---
2019 05 24 15  00 56 43.101   +57 51 37.81  .13038 .93443  50.1 26?? .116  94
2019 05 24 16  00 56 56.788   +57 50 26.81  .13085 .93414  50.1 26?? .116  94
2019 05 24 17  00 57 10.380   +57 49 16.15  .13133 .93384  50.1 26?? .116  95
2019 05 24 18  00 57 23.879   +57 48 05.85  .13180 .93354  50.1 26?? .117  95
2019 05 24 19  00 57 37.284   +57 46 55.88  .13228 .93324  50.0 26?? .117  95
2019 05 24 20  00 57 50.598   +57 45 46.26  .13276 .93294  50.0 26?? .117  95
2019 05 24 21  00 58 03.822   +57 44 36.97  .13323 .93264  50.0 26?? .117  95
2019 05 24 22  00 58 16.956   +57 43 28.02  .13371 .93234  50.0 26?? .118  95
2019 05 24 23  00 58 30.002   +57 42 19.39  .13418 .93205  49.9 26?? .118  95
2019 05 25 00  00 58 42.962   +57 41 11.10  .13466 .93175  49.9 26?? .118  95
2019 05 25 01  00 58 55.835   +57 40 03.13  .13513 .93145  49.9 26?? .119  96
2019 05 25 02  00 59 08.624   +57 38 55.48  .13561 .93116  49.9 26?? .119  96
2019 05 25 03  00 59 21.328   +57 37 48.15  .13608 .93086  49.9 26?? .119  96
2019 05 25 04  00 59 33.950   +57 36 41.13  .13656 .93056  49.8 26?? .120  96
2019 05 25 05  00 59 46.491   +57 35 34.43  .13704 .93027  49.8 26?? .120  96
2019 05 25 06  00 59 58.950   +57 34 28.04  .13751 .92997  49.8 26?? .121  96
2019 05 25 07  01 00 11.330   +57 33 21.96  .13799 .92968  49.8 26?? .121  97
2019 05 25 08  01 00 23.631   +57 32 16.18  .13846 .92938  49.8 26?? .121  97
2019 05 25 09  01 00 35.855   +57 31 10.70  .13894 .92909  49.7 26?? .122  97
2019 05 25 10  01 00 48.001   +57 30 05.53  .13942 .92879  49.7 26?? .122  97
2019 05 25 11  01 01 00.072   +57 29 00.65  .13989 .92850  49.7 26?? .122  97
2019 05 25 12  01 01 12.067   +57 27 56.06  .14037 .92820  49.7 26?? .123  97
2019 05 25 13  01 01 23.989   +57 26 51.77  .14085 .92791  49.7 26?? .123  98
2019 05 25 14  01 01 35.838   +57 25 47.77  .14132 .92761  49.6 26?? .124  98
2019 05 25 15  01 01 47.614   +57 24 44.05  .14180 .92732  49.6 26?? .124  98
2019 05 25 16  01 01 59.319   +57 23 40.62  .14228 .92703  49.6 26?? .125  98
2019 05 25 17  01 02 10.953   +57 22 37.47  .14275 .92674  49.6 26?? .125  98
2019 05 25 18  01 02 22.517   +57 21 34.60  .14323 .92644  49.6 26?? .126  98
2019 05 25 19  01 02 34.013   +57 20 32.00  .14371 .92615  49.6 26?? .126  99
2019 05 25 20  01 02 45.441   +57 19 29.68  .14418 .92586  49.5 26?? .127  99
2019 05 25 21  01 02 56.801   +57 18 27.64  .14466 .92557  49.5 26?? .127  99
2019 05 25 22  01 03 08.095   +57 17 25.86  .14514 .92528  49.5 26?? .128  99
2019 05 25 23  01 03 19.323   +57 16 24.35  .14561 .92498  49.5 26?? .128  99
2019 05 26 00  01 03 30.487   +57 15 23.10  .14609 .92469  49.5 26?? .129 100
2019 05 26 01  01 03 41.586   +57 14 22.12  .14657 .92440  49.5 26?? .129 100
2019 05 26 02  01 03 52.622   +57 13 21.40  .14704 .92411  49.4 26?? .130 100
2019 05 26 03  01 04 03.596   +57 12 20.94  .14752 .92382  49.4 26?? .130 100
2019 05 26 04  01 04 14.507   +57 11 20.73  .14800 .92353  49.4 26?? .131 100
2019 05 26 05  01 04 25.357   +57 10 20.78  .14847 .92324  49.4 26?? .132 100
2019 05 26 06  01 04 36.147   +57 09 21.07  .14895 .92295  49.4 26?? .132 101
2019 05 26 07  01 04 46.877   +57 08 21.62  .14943 .92267  49.4 26?? .133 101
2019 05 26 08  01 04 57.548   +57 07 22.42  .14991 .92238  49.4 26?? .134 101
2019 05 26 09  01 05 08.161   +57 06 23.46  .15038 .92209  49.3 26?? .134 101
2019 05 26 10  01 05 18.716   +57 05 24.74  .15086 .92180  49.3 26?? .135 101
2019 05 26 11  01 05 29.214   +57 04 26.26  .15134 .92151  49.3 26?? .135 102
2019 05 26 12  01 05 39.655   +57 03 28.03  .15182 .92123  49.3 26?? .136 102
2019 05 26 13  01 05 50.041   +57 02 30.03  .15229 .92094  49.3 26?? .137 102
2019 05 26 14  01 06 00.371   +57 01 32.26  .15277 .92065  49.3 26?? .138 102